[[{"header":{"parameterUnit":"m.s-1","parameterCategory":1,"la1":30.2991,"la2":30.254,"lo1":-89.0895,"lo2":-89.0444,"dy":0.0017,"dx":0.0017,"nx":28,"ny":28,"refTime":"2025-11-19T03:00:00:Z","depth":0,"parameterNumber":2,"parameterNumberName":"U-component_of_WINDS"},"data":[0,0,0,0,0,0,0,0,0,0,0,0,0,0,0,0,0,0,0,0,0,0,0,0,0,0,0,0,0,0,0,0,0,0,0,0,0,0,0,0,0,0,0,0,0,0,0,0,0,0,0,0,0,0,0,0,0,0,-0.4544,-0.4544,0,-0.4542,-0.4542,-0.4542,-0.4505,-0.4504,-0.4503,-0.4502,-0.4504,-0.4504,-0.4505,0,0,0,0,0,0,0,0,0,0,0,0,0,-0.4519,-0.452,-0.4544,-0.4544,-0.4544,-0.4542,-0.4542,-0.4542,-0.4505,-0.4504,-0.4503,-0.4502,-0.4503,-0.4504,-0.4505,0,0,0,0,0,0,0,0,0,0,0,0,0,-0.4525,-0.452,-0.4544,-0.4525,-0.4524,-0.4542,-0.4542,-0.4542,-0.4505,-0.4504,-0.4502,-0.4501,-0.4503,-0.4504,-0.4506,-0.4543,0,0,-0.451,-0.451,0,0,0,0,0,0,0,0,-0.4525,-0.4526,-0.4528,-0.4527,-0.4525,-0.4522,-0.4534,-0.4542,-0.4506,-0.4512,-0.4502,-0.45,-0.4511,-0.4512,-0.4515,-0.4543,-0.4543,-0.451,-0.4511,-0.4511,-0.4512,0,0,0,0,0,0,0,-0.4524,-0.4526,-0.4543,-0.4528,-0.4526,-0.4518,-0.4517,-0.4535,-0.452,-0.4512,-0.4509,-0.4509,-0.451,-0.4513,-0.4514,-0.4543,-0.451,-0.4511,-0.4512,-0.4513,-0.4603,-0.4604,0,0,0,0,0,0,-0.4526,-0.4526,-0.4543,-0.4543,-0.4521,-0.452,-0.4519,-0.4525,-0.452,-0.4517,-0.451,-0.4507,-0.4512,-0.4513,-0.4514,-0.4558,-0.4511,-0.4513,-0.4513,-0.4601,-0.4603,-0.4605,0,0,0,0,0,0,-0.4526,-0.4528,-0.4543,-0.4534,-0.4535,-0.4522,-0.4528,-0.4525,-0.4529,-0.4518,-0.4516,-0.4516,-0.4511,-0.4512,-0.4536,-0.4558,-0.4513,-0.4515,-0.4599,-0.4602,-0.4604,-0.4646,0,0,0,0,0,0,-0.4525,-0.4528,-0.4541,-0.4534,-0.4536,-0.4564,-0.453,-0.4526,-0.4531,-0.4527,-0.4524,-0.4522,-0.451,-0.4534,-0.4537,-0.4559,-0.4516,-0.4597,-0.46,-0.4603,-0.4643,-0.465,-0.4656,0,0,0,0,0,-0.4524,-0.4554,-0.4542,-0.4545,-0.4552,-0.4566,-0.4567,-0.4551,-0.4532,-0.4546,-0.454,-0.4522,-0.4555,-0.4537,-0.454,-0.4562,-0.4596,-0.4599,-0.4603,-0.464,-0.4648,-0.4655,0,0,0,0,0,0,-0.4566,-0.4553,-0.454,-0.4568,-0.4568,-0.4559,-0.4576,-0.456,-0.4567,-0.4563,-0.4545,-0.4544,-0.4571,-0.4569,-0.4549,-0.4599,-0.4572,-0.4576,-0.4599,-0.4607,-0.4613,-0.4614,-0.4517,0,0,0,0,0,-0.4577,-0.4589,-0.4577,-0.4603,-0.4604,-0.459,-0.4596,-0.4583,-0.4583,-0.4584,-0.4579,-0.4581,-0.4591,-0.4599,-0.4608,-0.4642,-0.4641,-0.4659,-0.4665,-0.4671,-0.4675,-0.4694,-0.4702,-0.4616,-0.4616,-0.4616,0,0,-0.4603,-0.4598,-0.4606,-0.4611,-0.461,-0.4623,-0.4591,-0.4606,-0.4616,-0.4586,-0.4608,-0.4605,-0.4606,-0.4635,-0.4647,-0.4634,-0.4698,-0.4675,-0.4679,-0.4681,-0.4698,-0.4706,-0.4713,-0.4618,-0.4618,-0.4618,0,0,-0.4657,-0.4653,-0.4674,-0.4673,-0.4671,-0.4662,-0.4667,-0.4661,-0.4657,-0.4679,-0.4657,-0.4669,-0.4688,-0.4689,-0.4692,-0.4746,-0.473,-0.4749,-0.4783,-0.4802,-0.4809,-0.4814,-0.4835,-0.4842,-0.4754,-0.4754,-0.4754,0,-0.4689,-0.4707,-0.4688,-0.4704,-0.4708,-0.468,-0.4703,-0.4703,-0.4705,-0.4708,-0.4693,-0.4716,-0.4714,-0.4743,-0.4756,-0.476,-0.4766,-0.475,-0.4809,-0.4815,-0.482,-0.4839,-0.4847,-0.4756,-0.4756,-0.4756,-0.4755,0,-0.4747,-0.476,-0.4777,-0.4779,-0.4784,-0.4803,-0.4788,-0.4796,-0.4783,-0.4776,-0.4799,-0.4796,-0.4804,-0.481,-0.4798,-0.4838,-0.483,-0.4812,-0.4785,-0.4831,-0.4849,-0.4856,-0.476,-0.4759,-0.4758,-0.4758,0,0,-0.4828,-0.4817,-0.4824,-0.4825,-0.482,-0.483,-0.4849,-0.4855,-0.4863,-0.4865,-0.4881,-0.4897,-0.488,-0.4884,-0.4872,-0.4888,-0.4932,-0.4868,-0.4868,-0.4881,-0.4977,-0.4991,-0.5,-0.4921,-0.4922,-0.4923,-0.4977,0,-0.488,-0.491,-0.4893,-0.4926,-0.4938,-0.4912,-0.4928,-0.4928,-0.4921,-0.4931,-0.4924,-0.4937,-0.4913,-0.4915,-0.493,-0.4924,-0.4951,-0.4919,-0.4937,-0.4938,-0.4939,-0.5009,-0.5025,-0.5076,-0.4984,-0.4985,-0.4986,0,-0.4945,-0.4949,-0.4983,-0.4976,-0.498,-0.4995,-0.5,-0.501,-0.5009,-0.5004,-0.5007,-0.4992,-0.5011,-0.4983,-0.5009,-0.4988,-0.4994,-0.4992,-0.4994,-0.4996,-0.4966,-0.5015,-0.5092,-0.51,-0.4996,-0.4996,-0.4995,0,-0.5002,-0.5015,-0.5037,-0.5038,-0.5031,-0.5042,-0.504,-0.5037,-0.5043,-0.5048,-0.5051,-0.5059,-0.5063,-0.507,-0.5057,-0.5038,-0.5086,-0.5057,-0.5083,-0.5083,-0.5095,-0.5095,-0.5176,-0.5097,-0.5097,-0.5096,-0.5096,0,-0.5063,-0.5085,-0.5062,-0.5076,-0.51,-0.5081,-0.5106,-0.5101,-0.5099,-0.5112,-0.509,-0.5103,-0.5085,-0.5097,-0.5087,-0.5111,-0.5113,-0.5109,-0.5107,-0.5112,-0.5113,-0.5117,-0.5114,-0.5098,-0.5098,-0.5098,-0.5097,0,-0.5131,-0.5116,-0.5139,-0.513,-0.5128,-0.5146,-0.5139,-0.5152,-0.5143,-0.516,-0.5163,-0.5151,-0.5163,-0.515,-0.5162,-0.5156,-0.5188,-0.518,-0.5188,-0.5186,-0.5213,-0.5212,-0.5301,-0.5312,-0.5225,-0.5226,-0.5227,0,-0.5171,-0.5188,-0.518,-0.5186,-0.5185,-0.5196,-0.5201,-0.5183,-0.5189,-0.519,-0.5203,-0.5213,-0.5221,-0.5242,-0.5235,-0.5244,-0.5236,-0.5267,-0.5238,-0.5243,-0.5238,-0.5238,-0.524,-0.5274,-0.5275,-0.5275,-0.5276,0,-0.5245,-0.5237,-0.5245,-0.525,-0.5256,-0.526,-0.5262,-0.5269,-0.525,-0.5258,-0.527,-0.5276,-0.5288,-0.5299,-0.5305,-0.5304,-0.5288,-0.5285,-0.5292,-0.5298,-0.5303,-0.5302,-0.5206,-0.5284,-0.5283,-0.5282,-0.5282,-0.5282,-0.5302,-0.5315,-0.5312,-0.5321,-0.532,-0.5322,-0.5334,-0.5327,-0.5336,-0.5343,-0.5332,-0.5347,-0.5346,-0.5354,-0.5354,-0.5367,-0.5354,-0.5364,-0.5366,-0.5369,-0.5374,-0.53,-0.5368,-0.5368,-0.5367,-0.5367,-0.5367,0,-0.5376,-0.5372,-0.538,-0.5383,-0.5391,-0.5373,-0.5374,-0.5382,-0.5395,-0.5395,-0.5402,-0.5417,-0.5427,-0.542,-0.5429,-0.5441,-0.5433,-0.5444,-0.5444,-0.5444,-0.5384,-0.5378,-0.545,-0.545,-0.545,-0.545,-0.545,-0.545,-0.5415,-0.5437,-0.5429,-0.545,-0.5446,-0.546,-0.5462,-0.5465,-0.5465,-0.5481,-0.5489,-0.5484,-0.5482,-0.549,-0.55,-0.5497,-0.5503,-0.5516,-0.5512,-0.5456,-0.5448,-0.544,-0.5434,-0.5517,-0.5517,-0.557,-0.5571,-0.5571]},{"header":{"parameterUnit":"m.s-1","parameterCategory":1,"la1":30.2991,"la2":30.254,"lo1":-89.0895,"lo2":-89.0444,"dy":0.0017,"dx":0.0017,"nx":28,"ny":28,"refTime":"2025-11-19T03:00:00:Z","depth":0,"parameterNumber":3,"parameterNumberName":"V-component_of_WINDS"},"data":[0,0,0,0,0,0,0,0,0,0,0,0,0,0,0,0,0,0,0,0,0,0,0,0,0,0,0,0,0,0,0,0,0,0,0,0,0,0,0,0,0,0,0,0,0,0,0,0,0,0,0,0,0,0,0,0,0,0,-0.341,-0.341,0,-0.3379,-0.3378,-0.3378,-0.3335,-0.3334,-0.3334,-0.3333,-0.3301,-0.3301,-0.3301,0,0,0,0,0,0,0,0,0,0,0,0,0,-0.3435,-0.3435,-0.341,-0.341,-0.341,-0.3379,-0.3378,-0.3378,-0.3335,-0.3334,-0.3334,-0.3333,-0.3301,-0.3301,-0.3301,0,0,0,0,0,0,0,0,0,0,0,0,0,-0.3416,-0.3435,-0.3411,-0.3385,-0.3382,-0.3379,-0.3378,-0.3378,-0.3335,-0.3334,-0.3333,-0.3332,-0.3301,-0.3301,-0.3301,-0.332,0,0,-0.33,-0.33,0,0,0,0,0,0,0,0,-0.3417,-0.3415,-0.3389,-0.3386,-0.3384,-0.336,-0.3375,-0.3359,-0.3336,-0.3353,-0.3333,-0.3332,-0.3322,-0.332,-0.3316,-0.3319,-0.3318,-0.33,-0.33,-0.33,-0.33,0,0,0,0,0,0,0,-0.3418,-0.3416,-0.3398,-0.3389,-0.3385,-0.3375,-0.3371,-0.3372,-0.3344,-0.3352,-0.3348,-0.3345,-0.332,-0.3316,-0.3315,-0.3317,-0.33,-0.33,-0.3299,-0.3299,-0.3335,-0.3336,0,0,0,0,0,0,-0.3424,-0.3418,-0.3399,-0.3397,-0.3398,-0.3375,-0.3371,-0.3368,-0.3344,-0.3339,-0.3346,-0.3343,-0.3317,-0.3315,-0.3314,-0.3335,-0.33,-0.3299,-0.3299,-0.3334,-0.3335,-0.3336,0,0,0,0,0,0,-0.3424,-0.3422,-0.34,-0.3406,-0.3403,-0.3376,-0.3374,-0.3368,-0.3365,-0.334,-0.3334,-0.3348,-0.3316,-0.3314,-0.3319,-0.3333,-0.3299,-0.3299,-0.3332,-0.3334,-0.3336,-0.3378,0,0,0,0,0,0,-0.3425,-0.3423,-0.343,-0.3407,-0.3403,-0.3406,-0.3374,-0.3369,-0.3364,-0.336,-0.334,-0.3335,-0.3315,-0.332,-0.3319,-0.3332,-0.3299,-0.3331,-0.3333,-0.3335,-0.3375,-0.3381,-0.3385,0,0,0,0,0,-0.3426,-0.3443,-0.343,-0.3428,-0.3411,-0.3407,-0.3404,-0.3381,-0.3366,-0.3373,-0.3356,-0.3336,-0.3332,-0.3321,-0.3319,-0.3333,-0.333,-0.3332,-0.3335,-0.3373,-0.3379,-0.3385,0,0,0,0,0,0,-0.3468,-0.344,-0.3425,-0.3435,-0.3424,-0.34,-0.3408,-0.3389,-0.3382,-0.3379,-0.3351,-0.3346,-0.3355,-0.3344,-0.3332,-0.335,-0.3328,-0.333,-0.3357,-0.3363,-0.3368,-0.3371,-0.3299,0,0,0,0,0,-0.3479,-0.3478,-0.3453,-0.3464,-0.3459,-0.3435,-0.3432,-0.3415,-0.3402,-0.3397,-0.3381,-0.337,-0.3366,-0.3364,-0.3359,-0.3373,-0.3368,-0.3382,-0.3387,-0.3392,-0.3394,-0.3401,-0.3406,-0.3344,-0.3344,-0.3344,0,0,-0.3501,-0.3485,-0.3486,-0.3472,-0.3461,-0.3461,-0.3431,-0.3432,-0.3431,-0.3397,-0.3401,-0.3389,-0.3375,-0.3384,-0.3388,-0.3376,-0.341,-0.3395,-0.3399,-0.3398,-0.3404,-0.341,-0.3415,-0.3346,-0.3346,-0.3345,0,0,-0.354,-0.3528,-0.3536,-0.3526,-0.351,-0.3493,-0.3495,-0.3474,-0.3465,-0.3468,-0.3442,-0.3442,-0.3436,-0.3426,-0.3421,-0.3457,-0.3438,-0.3456,-0.3484,-0.349,-0.3495,-0.3499,-0.3512,-0.3517,-0.3459,-0.3459,-0.3459,0,-0.3569,-0.3567,-0.3542,-0.3545,-0.354,-0.3509,-0.3517,-0.3508,-0.3492,-0.3489,-0.3476,-0.3468,-0.3456,-0.3463,-0.3471,-0.3468,-0.347,-0.3458,-0.3497,-0.35,-0.3504,-0.3516,-0.3521,-0.3461,-0.3461,-0.3461,-0.346,0,-0.3603,-0.3603,-0.3611,-0.3596,-0.3592,-0.3597,-0.3573,-0.3572,-0.3556,-0.3541,-0.3544,-0.3529,-0.352,-0.3521,-0.3505,-0.3526,-0.3519,-0.3502,-0.3478,-0.3513,-0.3523,-0.3528,-0.3464,-0.3464,-0.3463,-0.3462,0,0,-0.3668,-0.3639,-0.3642,-0.3635,-0.3615,-0.3614,-0.3618,-0.361,-0.3609,-0.3599,-0.3602,-0.3598,-0.3582,-0.3575,-0.3558,-0.3564,-0.3594,-0.3546,-0.3546,-0.3555,-0.3616,-0.3629,-0.3634,-0.3581,-0.3582,-0.3583,-0.3617,0,-0.3703,-0.3708,-0.3686,-0.3697,-0.3696,-0.3667,-0.3671,-0.3659,-0.3645,-0.3643,-0.3628,-0.3625,-0.3604,-0.36,-0.3605,-0.3589,-0.3606,-0.3587,-0.3584,-0.3584,-0.3588,-0.364,-0.3653,-0.3686,-0.3621,-0.3622,-0.3622,0,-0.3744,-0.3736,-0.3747,-0.3727,-0.3726,-0.3729,-0.372,-0.3718,-0.3704,-0.3694,-0.3687,-0.3668,-0.3671,-0.3649,-0.3652,-0.364,-0.3637,-0.363,-0.363,-0.3629,-0.3605,-0.3639,-0.3696,-0.3701,-0.3628,-0.3628,-0.3627,0,-0.379,-0.3782,-0.3787,-0.3782,-0.3759,-0.3762,-0.3752,-0.3738,-0.3734,-0.3726,-0.3723,-0.3716,-0.3712,-0.3706,-0.3685,-0.3671,-0.3692,-0.3668,-0.3683,-0.3684,-0.3688,-0.3688,-0.3745,-0.3687,-0.3687,-0.3687,-0.3687,0,-0.3831,-0.3839,-0.3807,-0.3811,-0.3818,-0.3793,-0.3802,-0.3789,-0.3777,-0.3777,-0.3752,-0.3753,-0.3726,-0.3724,-0.3708,-0.3713,-0.3711,-0.3703,-0.3699,-0.3705,-0.3706,-0.3703,-0.37,-0.3688,-0.3688,-0.3688,-0.3688,0,-0.3883,-0.3862,-0.3866,-0.3844,-0.3839,-0.3845,-0.3826,-0.3829,-0.3814,-0.3815,-0.3813,-0.379,-0.3786,-0.3765,-0.3757,-0.3746,-0.3757,-0.3748,-0.3762,-0.3759,-0.3775,-0.3774,-0.3831,-0.3838,-0.3777,-0.3777,-0.3778,0,-0.3911,-0.3916,-0.3894,-0.3893,-0.3884,-0.3882,-0.3878,-0.3854,-0.3851,-0.3836,-0.384,-0.3835,-0.3829,-0.3825,-0.3807,-0.3801,-0.3792,-0.3812,-0.379,-0.3797,-0.3792,-0.3791,-0.3792,-0.3817,-0.3818,-0.3818,-0.3819,0,-0.3961,-0.3951,-0.3946,-0.3938,-0.3934,-0.3927,-0.3918,-0.3918,-0.3891,-0.3889,-0.3885,-0.3881,-0.3872,-0.3867,-0.3858,-0.3848,-0.3829,-0.3826,-0.3829,-0.3836,-0.3843,-0.3839,-0.3774,-0.3825,-0.3824,-0.3824,-0.3823,-0.3823,-0.4002,-0.4005,-0.399,-0.3986,-0.3977,-0.3969,-0.397,-0.3955,-0.3951,-0.3942,-0.3928,-0.3926,-0.3913,-0.3899,-0.3891,-0.3889,-0.3878,-0.3883,-0.3884,-0.3885,-0.3888,-0.3844,-0.3887,-0.3887,-0.3887,-0.3887,-0.3886,0,-0.4051,-0.404,-0.4037,-0.4025,-0.4021,-0.4004,-0.3993,-0.3992,-0.399,-0.3979,-0.3974,-0.397,-0.3965,-0.3947,-0.394,-0.3942,-0.3933,-0.3941,-0.3941,-0.3939,-0.3899,-0.3897,-0.3949,-0.3949,-0.3949,-0.3949,-0.3949,-0.3949,-0.4076,-0.4081,-0.4069,-0.4069,-0.4058,-0.4056,-0.4051,-0.4044,-0.4035,-0.4031,-0.4027,-0.4015,-0.4002,-0.3994,-0.3988,-0.3983,-0.3982,-0.3993,-0.3985,-0.3948,-0.3942,-0.3936,-0.3934,-0.3993,-0.3993,-0.4025,-0.4025,-0.4025]}]]